Year,Month,Day,Hour,Minute,Value (Times are PST for temperature in C)
2017,06,25,00,00,20.30
2017,06,25,00,01,20.30
2017,06,25,00,02,20.30
2017,06,25,00,03,20.40
2017,06,25,00,04,20.40
2017,06,25,00,05,20.40
2017,06,25,00,06,20.40
2017,06,25,00,07,20.40
2017,06,25,00,08,20.40
2017,06,25,00,09,20.40
2017,06,25,00,10,20.40
2017,06,25,00,11,20.40
2017,06,25,00,12,20.40
2017,06,25,00,13,20.40
2017,06,25,00,14,20.40
2017,06,25,00,15,20.40
2017,06,25,00,16,20.40
2017,06,25,00,17,20.40
2017,06,25,00,18,20.40
2017,06,25,00,19,20.40
2017,06,25,00,20,20.40
2017,06,25,00,21,20.40
2017,06,25,00,22,20.40
2017,06,25,00,23,20.40
2017,06,25,00,24,20.40
2017,06,25,00,25,20.40
2017,06,25,00,26,20.40
2017,06,25,00,27,20.40
2017,06,25,00,28,20.40
2017,06,25,00,29,20.40
2017,06,25,00,30,20.50
2017,06,25,00,31,20.50
2017,06,25,00,32,20.50
2017,06,25,00,33,20.50
2017,06,25,00,34,20.60
2017,06,25,00,35,20.60
2017,06,25,00,36,20.60
2017,06,25,00,37,20.60
2017,06,25,00,38,20.50
2017,06,25,00,39,20.50
2017,06,25,00,40,20.50
2017,06,25,00,41,20.40
2017,06,25,00,42,20.40
2017,06,25,00,43,20.40
2017,06,25,00,44,20.40
2017,06,25,00,45,20.40
2017,06,25,00,46,20.50
2017,06,25,00,47,20.50
2017,06,25,00,48,20.60
2017,06,25,00,49,20.70
2017,06,25,00,50,20.70
2017,06,25,00,51,20.80
2017,06,25,00,52,20.80
2017,06,25,00,53,20.80
2017,06,25,00,54,20.80
2017,06,25,00,55,20.80
2017,06,25,00,56,20.90
2017,06,25,00,57,20.90
2017,06,25,00,58,20.80
2017,06,25,00,59,20.80
2017,06,25,01,00,20.80
2017,06,25,01,01,20.80
2017,06,25,01,02,20.70
2017,06,25,01,03,20.70
2017,06,25,01,04,20.70
2017,06,25,01,05,20.70
2017,06,25,01,06,20.60
2017,06,25,01,07,20.60
2017,06,25,01,08,20.60
2017,06,25,01,09,20.60
2017,06,25,01,10,20.60
2017,06,25,01,11,20.60
2017,06,25,01,12,20.60
2017,06,25,01,13,20.60
2017,06,25,01,14,20.50
2017,06,25,01,15,20.50
2017,06,25,01,16,20.40
2017,06,25,01,17,20.40
2017,06,25,01,18,20.30
2017,06,25,01,19,20.30
2017,06,25,01,20,20.20
2017,06,25,01,21,20.20
2017,06,25,01,22,20.10
2017,06,25,01,23,20.00
2017,06,25,01,24,20.00
2017,06,25,01,25,19.90
2017,06,25,01,26,19.90
2017,06,25,01,27,19.80
2017,06,25,01,28,19.80
2017,06,25,01,29,19.80
2017,06,25,01,30,19.70
2017,06,25,01,31,19.70
2017,06,25,01,32,19.60
2017,06,25,01,33,19.60
2017,06,25,01,34,19.50
2017,06,25,01,35,19.40
2017,06,25,01,36,19.40
2017,06,25,01,37,19.30
2017,06,25,01,38,19.20
2017,06,25,01,39,19.20
2017,06,25,01,40,19.10
2017,06,25,01,41,19.00
2017,06,25,01,42,18.90
2017,06,25,01,43,18.90
2017,06,25,01,44,18.80
2017,06,25,01,45,18.70
2017,06,25,01,46,18.60
2017,06,25,01,47,18.60
2017,06,25,01,48,18.50
2017,06,25,01,49,18.50
2017,06,25,01,50,18.40
2017,06,25,01,51,18.40
2017,06,25,01,52,18.40
2017,06,25,01,53,18.30
2017,06,25,01,54,18.30
2017,06,25,01,55,18.30
2017,06,25,01,56,18.20
2017,06,25,01,57,18.20
2017,06,25,01,58,18.10
2017,06,25,01,59,18.10
2017,06,25,02,00,18.00
2017,06,25,02,01,17.90
2017,06,25,02,02,17.90
2017,06,25,02,03,17.80
2017,06,25,02,04,17.80
2017,06,25,02,05,17.80
2017,06,25,02,06,17.70
2017,06,25,02,07,17.70
2017,06,25,02,08,17.60
2017,06,25,02,09,17.60
2017,06,25,02,10,17.50
2017,06,25,02,11,17.50
2017,06,25,02,12,17.40
2017,06,25,02,13,17.40
2017,06,25,02,14,17.30
2017,06,25,02,15,17.30
2017,06,25,02,16,17.30
2017,06,25,02,17,17.20
2017,06,25,02,18,17.20
2017,06,25,02,19,17.10
2017,06,25,02,20,17.10
2017,06,25,02,21,17.10
2017,06,25,02,22,17.00
2017,06,25,02,23,17.00
2017,06,25,02,24,16.90
2017,06,25,02,25,16.90
2017,06,25,02,26,16.90
2017,06,25,02,27,16.90
2017,06,25,02,28,16.80
2017,06,25,02,29,16.80
2017,06,25,02,30,16.80
2017,06,25,02,31,16.80
2017,06,25,02,32,16.80
2017,06,25,02,33,16.80
2017,06,25,02,34,16.80
2017,06,25,02,35,16.80
2017,06,25,02,36,16.80
2017,06,25,02,37,16.80
2017,06,25,02,38,16.80
2017,06,25,02,39,16.70
2017,06,25,02,40,16.70
2017,06,25,02,41,16.70
2017,06,25,02,42,16.70
2017,06,25,02,43,16.70
2017,06,25,02,44,16.70
2017,06,25,02,45,16.70
2017,06,25,02,46,16.70
2017,06,25,02,47,16.70
2017,06,25,02,48,16.80
2017,06,25,02,49,16.80
2017,06,25,02,50,16.80
2017,06,25,02,51,16.80
2017,06,25,02,52,16.90
2017,06,25,02,53,16.90
2017,06,25,02,54,16.90
2017,06,25,02,55,16.90
2017,06,25,02,56,16.90
2017,06,25,02,57,17.00
2017,06,25,02,58,17.00
2017,06,25,02,59,17.00
2017,06,25,03,00,17.00
2017,06,25,03,01,17.10
2017,06,25,03,02,17.10
2017,06,25,03,03,17.10
2017,06,25,03,04,17.10
2017,06,25,03,05,17.10
2017,06,25,03,06,17.10
2017,06,25,03,07,17.10
2017,06,25,03,08,17.10
2017,06,25,03,09,17.10
2017,06,25,03,10,17.10
2017,06,25,03,11,17.10
2017,06,25,03,12,17.10
2017,06,25,03,13,17.10
2017,06,25,03,14,17.10
2017,06,25,03,15,17.20
2017,06,25,03,16,17.30
2017,06,25,03,17,17.40
2017,06,25,03,18,17.50
2017,06,25,03,19,17.70
2017,06,25,03,20,17.70
2017,06,25,03,21,17.80
2017,06,25,03,22,17.80
2017,06,25,03,23,17.80
2017,06,25,03,24,17.90
2017,06,25,03,25,17.90
2017,06,25,03,26,17.90
2017,06,25,03,27,17.90
2017,06,25,03,28,18.00
2017,06,25,03,29,18.00
2017,06,25,03,30,18.10
2017,06,25,03,31,18.20
2017,06,25,03,32,18.20
2017,06,25,03,33,18.30
2017,06,25,03,34,18.40
2017,06,25,03,35,18.50
2017,06,25,03,36,18.60
2017,06,25,03,37,18.70
2017,06,25,03,38,18.80
2017,06,25,03,39,18.80
2017,06,25,03,40,18.90
2017,06,25,03,41,18.90
2017,06,25,03,42,18.90
2017,06,25,03,43,18.90
2017,06,25,03,44,18.80
2017,06,25,03,45,18.70
2017,06,25,03,46,18.60
2017,06,25,03,47,18.40
2017,06,25,03,48,18.30
2017,06,25,03,49,18.10
2017,06,25,03,50,18.00
2017,06,25,03,51,17.80
2017,06,25,03,52,17.60
2017,06,25,03,53,17.50
2017,06,25,03,54,17.30
2017,06,25,03,55,17.20
2017,06,25,03,56,17.10
2017,06,25,03,57,17.00
2017,06,25,03,58,16.90
2017,06,25,03,59,16.80
2017,06,25,04,00,16.80
2017,06,25,04,01,16.70
2017,06,25,04,02,16.70
2017,06,25,04,03,16.70
2017,06,25,05,04,18.40
2017,06,25,05,05,18.40
2017,06,25,05,06,18.40
2017,06,25,05,07,18.30
2017,06,25,05,08,18.30
2017,06,25,05,09,18.30
2017,06,25,05,10,18.30
2017,06,25,05,11,18.30
2017,06,25,05,12,18.30
2017,06,25,05,13,18.30
2017,06,25,05,14,18.30
2017,06,25,05,15,18.20
2017,06,25,05,16,18.20
2017,06,25,05,17,18.10
2017,06,25,05,18,18.10
2017,06,25,05,19,18.10
2017,06,25,05,20,18.10
2017,06,25,05,21,18.10
2017,06,25,05,22,18.00
2017,06,25,05,23,18.00
2017,06,25,05,24,18.00
2017,06,25,05,25,18.00
2017,06,25,05,26,18.00
2017,06,25,05,27,18.00
2017,06,25,05,28,17.90
2017,06,25,05,29,17.90
2017,06,25,05,30,17.90
2017,06,25,05,31,17.90
2017,06,25,05,32,17.90
2017,06,25,05,33,17.90
2017,06,25,05,34,17.90
2017,06,25,05,35,17.90
2017,06,25,05,36,17.90
2017,06,25,05,37,17.90
2017,06,25,05,38,17.90
2017,06,25,05,39,17.90
2017,06,25,05,40,17.90
2017,06,25,05,41,17.90
2017,06,25,05,42,17.90
2017,06,25,05,43,17.90
2017,06,25,05,44,17.90
2017,06,25,05,45,18.00
2017,06,25,05,46,18.00
2017,06,25,05,47,18.00
2017,06,25,05,48,18.00
2017,06,25,05,49,18.10
2017,06,25,05,50,18.10
2017,06,25,05,51,18.10
2017,06,25,05,52,18.10
2017,06,25,05,53,18.10
2017,06,25,05,54,18.10
2017,06,25,05,55,18.10
2017,06,25,05,56,18.10
2017,06,25,05,57,18.00
2017,06,25,05,58,18.00
2017,06,25,05,59,18.00
2017,06,25,06,00,18.00
2017,06,25,06,01,17.90
2017,06,25,06,02,17.90
2017,06,25,06,03,18.00
2017,06,25,06,04,18.00
2017,06,25,06,05,18.00
2017,06,25,06,06,18.00
2017,06,25,06,07,18.00
2017,06,25,06,08,18.00
2017,06,25,06,09,18.10
2017,06,25,06,10,18.10
2017,06,25,06,11,18.10
2017,06,25,06,12,18.10
2017,06,25,06,13,18.10
2017,06,25,06,14,18.20
2017,06,25,06,15,18.20
2017,06,25,06,16,18.20
2017,06,25,06,17,18.30
2017,06,25,06,18,18.30
2017,06,25,06,19,18.40
2017,06,25,06,20,18.40
2017,06,25,06,21,18.40
2017,06,25,06,22,18.40
2017,06,25,06,23,18.50
2017,06,25,06,24,18.50
2017,06,25,06,25,18.60
2017,06,25,06,26,18.70
2017,06,25,06,27,18.80
2017,06,25,06,28,18.90
2017,06,25,06,29,19.00
2017,06,25,06,30,19.20
2017,06,25,06,31,19.30
2017,06,25,06,32,19.40
2017,06,25,06,33,19.50
2017,06,25,06,34,19.60
2017,06,25,06,35,19.70
2017,06,25,06,36,19.90
2017,06,25,06,37,20.00
2017,06,25,06,38,20.10
2017,06,25,06,39,20.10
2017,06,25,06,40,20.20
2017,06,25,06,41,20.30
2017,06,25,06,42,20.40
2017,06,25,06,43,20.40
2017,06,25,06,44,20.50
2017,06,25,06,45,20.50
2017,06,25,06,46,20.60
2017,06,25,06,47,20.60
2017,06,25,06,48,20.60
2017,06,25,06,49,20.60
2017,06,25,06,50,20.50
2017,06,25,06,51,20.60
2017,06,25,06,52,20.60
2017,06,25,06,53,20.60
2017,06,25,06,54,20.60
2017,06,25,06,55,20.50
2017,06,25,06,56,20.50
2017,06,25,06,57,20.50
2017,06,25,06,58,20.40
2017,06,25,06,59,20.40
2017,06,25,07,00,20.40
2017,06,25,07,01,20.40
2017,06,25,07,02,20.40
2017,06,25,07,03,20.40
2017,06,25,07,04,20.40
2017,06,25,07,05,20.50
2017,06,25,07,06,20.50
2017,06,25,07,07,20.60
2017,06,25,07,08,20.60
2017,06,25,07,09,20.70
2017,06,25,07,10,20.80
2017,06,25,07,11,20.80
2017,06,25,07,12,20.80
2017,06,25,07,13,20.90
2017,06,25,07,14,20.90
2017,06,25,07,15,21.00
2017,06,25,07,16,21.00
2017,06,25,07,17,21.10
2017,06,25,07,18,21.10
2017,06,25,07,19,21.10
2017,06,25,07,20,21.10
2017,06,25,07,21,21.10
2017,06,25,07,22,21.10
2017,06,25,07,23,21.20
2017,06,25,07,24,21.10
2017,06,25,07,25,21.10
2017,06,25,07,26,21.10
2017,06,25,07,27,21.10
2017,06,25,07,28,21.10
2017,06,25,07,29,21.10
2017,06,25,07,30,21.20
2017,06,25,07,31,21.20
2017,06,25,07,32,21.20
2017,06,25,07,33,21.20
2017,06,25,07,34,21.20
2017,06,25,07,35,21.20
2017,06,25,07,36,21.20
2017,06,25,07,37,21.20
2017,06,25,07,38,21.20
2017,06,25,07,39,21.20
2017,06,25,07,40,21.20
2017,06,25,07,41,21.20
2017,06,25,07,42,21.20
2017,06,25,07,43,21.20
2017,06,25,07,44,21.20
2017,06,25,07,45,21.20
2017,06,25,07,46,21.20
2017,06,25,07,47,21.20
2017,06,25,07,48,21.20
2017,06,25,07,49,21.20
2017,06,25,07,50,21.20
2017,06,25,07,51,21.20
2017,06,25,07,52,21.20
2017,06,25,07,53,21.20
2017,06,25,07,54,21.20
2017,06,25,07,55,21.20
2017,06,25,07,56,21.20
2017,06,25,07,57,21.20
2017,06,25,07,58,21.20
2017,06,25,07,59,21.30
2017,06,25,08,00,21.20
2017,06,25,08,01,21.20
2017,06,25,08,02,21.20
2017,06,25,08,03,21.20
2017,06,25,08,04,21.20
2017,06,25,08,05,21.30
2017,06,25,08,06,21.30
2017,06,25,08,07,21.30
2017,06,25,08,08,21.40
2017,06,25,08,09,21.40
2017,06,25,08,10,21.50
2017,06,25,08,11,21.50
2017,06,25,08,12,21.60
2017,06,25,08,13,21.60
2017,06,25,08,14,21.70
2017,06,25,08,15,21.70
2017,06,25,08,16,21.70
2017,06,25,08,17,21.70
2017,06,25,08,18,21.70
2017,06,25,08,19,21.70
2017,06,25,08,20,21.80
2017,06,25,08,21,21.80
2017,06,25,08,22,21.80
2017,06,25,08,23,21.90
2017,06,25,08,24,21.90
2017,06,25,08,25,21.90
2017,06,25,08,26,22.00
2017,06,25,08,27,22.00
2017,06,25,08,28,22.10
2017,06,25,08,29,22.10
2017,06,25,08,30,22.10
2017,06,25,08,31,22.20
2017,06,25,08,32,22.20
2017,06,25,08,33,22.20
2017,06,25,08,34,22.20
2017,06,25,08,35,22.20
2017,06,25,08,36,22.20
2017,06,25,08,37,22.20
2017,06,25,08,38,22.20
2017,06,25,08,39,22.20
2017,06,25,08,40,22.20
2017,06,25,08,41,22.20
2017,06,25,08,42,22.20
2017,06,25,08,43,22.20
2017,06,25,08,44,22.30
2017,06,25,08,45,22.30
2017,06,25,08,46,22.30
2017,06,25,08,47,22.40
2017,06,25,08,48,22.40
2017,06,25,08,49,22.50
2017,06,25,08,50,22.50
2017,06,25,08,51,22.60
2017,06,25,08,52,22.60
2017,06,25,08,53,22.70
2017,06,25,08,54,22.70
2017,06,25,08,55,22.70
2017,06,25,08,56,22.70
2017,06,25,08,57,22.80
2017,06,25,08,58,22.80
2017,06,25,08,59,22.80
2017,06,25,09,00,22.90
2017,06,25,09,01,22.90
2017,06,25,09,02,22.90
2017,06,25,09,03,22.90
2017,06,25,09,04,23.00
2017,06,25,09,05,23.00
2017,06,25,09,06,23.10
2017,06,25,09,07,23.10
2017,06,25,09,08,23.10
2017,06,25,09,09,23.10
2017,06,25,09,10,23.10
2017,06,25,09,11,23.10
2017,06,25,09,12,23.10
2017,06,25,09,13,23.20
2017,06,25,09,14,23.20
2017,06,25,09,15,23.20
2017,06,25,09,16,23.30
2017,06,25,09,17,23.30
2017,06,25,09,18,23.30
2017,06,25,09,19,23.30
2017,06,25,09,20,23.30
2017,06,25,09,21,23.30
2017,06,25,09,22,23.40
2017,06,25,09,23,23.40
2017,06,25,09,24,23.40
2017,06,25,09,25,23.40
2017,06,25,09,26,23.40
2017,06,25,09,27,23.50
2017,06,25,09,28,23.50
2017,06,25,09,29,23.60
2017,06,25,09,30,23.60
2017,06,25,09,31,23.70
2017,06,25,09,32,23.70
2017,06,25,09,33,23.80
2017,06,25,09,34,23.80
2017,06,25,09,35,23.80
2017,06,25,09,36,23.80
2017,06,25,09,37,23.80
2017,06,25,09,38,23.80
2017,06,25,09,39,23.80
2017,06,25,09,40,23.90
2017,06,25,09,41,23.90
2017,06,25,09,42,24.00
2017,06,25,09,43,24.00
2017,06,25,09,44,24.10
2017,06,25,09,45,24.20
2017,06,25,09,46,24.30
2017,06,25,09,47,24.40
2017,06,25,09,48,24.50
2017,06,25,09,49,24.50
2017,06,25,09,50,24.60
2017,06,25,09,51,24.60
2017,06,25,09,52,24.60
2017,06,25,09,53,24.70
2017,06,25,09,54,24.70
2017,06,25,09,55,24.70
2017,06,25,09,56,24.70
2017,06,25,09,57,24.60
2017,06,25,09,58,24.60
2017,06,25,09,59,24.60
2017,06,25,10,00,24.50
2017,06,25,10,01,24.40
2017,06,25,10,02,24.40
2017,06,25,10,03,24.30
2017,06,25,10,04,24.30
2017,06,25,10,05,24.30
2017,06,25,10,06,24.30
2017,06,25,10,07,24.30
2017,06,25,10,08,24.30
2017,06,25,10,09,24.30
2017,06,25,10,10,24.30
2017,06,25,10,11,24.30
2017,06,25,10,12,24.30
2017,06,25,10,13,24.30
2017,06,25,10,14,24.30
2017,06,25,10,15,24.40
2017,06,25,10,16,24.40
2017,06,25,10,17,24.40
2017,06,25,10,18,24.40
2017,06,25,10,19,24.40
2017,06,25,10,20,24.50
2017,06,25,10,21,24.60
2017,06,25,10,22,24.70
2017,06,25,10,23,24.80
2017,06,25,10,24,24.90
2017,06,25,10,25,25.10
2017,06,25,10,26,25.10
2017,06,25,10,27,25.20
2017,06,25,10,28,25.30
2017,06,25,10,29,25.40
2017,06,25,10,30,25.50
2017,06,25,10,31,25.50
2017,06,25,10,32,25.60
2017,06,25,10,33,25.60
2017,06,25,10,34,25.60
2017,06,25,10,35,25.60
2017,06,25,10,36,25.60
2017,06,25,10,37,25.60
2017,06,25,10,38,25.60
2017,06,25,10,39,25.70
2017,06,25,10,40,25.70
2017,06,25,10,41,25.70
2017,06,25,10,42,25.70
2017,06,25,10,43,25.70
2017,06,25,10,44,25.70
2017,06,25,10,45,25.70
2017,06,25,10,46,25.70
2017,06,25,10,47,25.70
2017,06,25,10,48,25.70
2017,06,25,10,49,25.70
2017,06,25,10,50,25.60
2017,06,25,10,51,25.70
2017,06,25,10,52,25.70
2017,06,25,10,53,25.80
2017,06,25,10,54,25.80
2017,06,25,10,55,25.90
2017,06,25,10,56,25.90
2017,06,25,10,57,25.90
2017,06,25,10,58,25.90
2017,06,25,10,59,25.90
2017,06,25,11,00,25.80
2017,06,25,11,01,25.80
2017,06,25,11,02,25.80
2017,06,25,11,03,25.70
2017,06,25,11,04,25.70
2017,06,25,11,05,25.70
2017,06,25,11,06,25.60
2017,06,25,11,07,25.60
2017,06,25,11,08,25.50
2017,06,25,11,09,25.40
2017,06,25,11,10,25.40
2017,06,25,11,11,25.40
2017,06,25,11,12,25.40
2017,06,25,11,13,25.40
2017,06,25,11,14,25.40
2017,06,25,11,15,25.40
2017,06,25,11,16,25.30
2017,06,25,11,17,25.20
2017,06,25,11,18,25.20
2017,06,25,11,19,25.20
2017,06,25,11,20,25.20
2017,06,25,11,21,25.20
2017,06,25,11,22,25.20
2017,06,25,11,23,25.20
2017,06,25,11,24,25.30
2017,06,25,11,25,25.30
2017,06,25,11,26,25.40
2017,06,25,11,27,25.50
2017,06,25,11,28,25.50
2017,06,25,11,29,25.50
2017,06,25,11,30,25.50
2017,06,25,11,31,25.50
2017,06,25,11,32,25.50
2017,06,25,11,33,25.50
2017,06,25,11,34,25.50
2017,06,25,11,35,25.50
2017,06,25,11,36,25.50
2017,06,25,11,37,25.50
2017,06,25,11,38,25.50
2017,06,25,11,39,25.50
2017,06,25,11,40,25.60
2017,06,25,11,41,25.60
2017,06,25,11,42,25.70
2017,06,25,11,43,25.80
2017,06,25,11,44,25.80
2017,06,25,11,45,25.90
2017,06,25,11,46,25.90
2017,06,25,11,47,26.00
2017,06,25,11,48,26.00
2017,06,25,11,49,26.00
2017,06,25,11,50,26.00
2017,06,25,11,51,26.00
2017,06,25,11,52,26.00
2017,06,25,11,53,26.00
2017,06,25,11,54,26.10
2017,06,25,11,55,26.10
2017,06,25,11,56,26.10
2017,06,25,11,57,26.00
2017,06,25,11,58,26.00
2017,06,25,11,59,26.00
2017,06,25,12,00,26.10
2017,06,25,12,01,26.10
2017,06,25,12,02,26.20
2017,06,25,12,03,26.30
2017,06,25,12,04,26.30
2017,06,25,12,05,26.30
2017,06,25,12,06,26.30
2017,06,25,12,07,26.30
2017,06,25,12,08,26.30
2017,06,25,12,09,26.30
2017,06,25,12,10,26.40
2017,06,25,12,11,26.40
2017,06,25,12,12,26.40
2017,06,25,12,13,26.40
2017,06,25,12,14,26.40
2017,06,25,12,15,26.50
2017,06,25,12,16,26.40
2017,06,25,12,17,26.40
2017,06,25,12,18,26.50
2017,06,25,12,19,26.50
2017,06,25,12,20,26.50
2017,06,25,12,21,26.50
2017,06,25,12,22,26.50
2017,06,25,12,23,26.50
2017,06,25,12,24,26.60
2017,06,25,12,25,26.70
2017,06,25,12,26,26.80
2017,06,25,12,27,26.90
2017,06,25,12,28,26.90
2017,06,25,12,29,26.90
2017,06,25,12,30,27.00
2017,06,25,12,31,27.00
2017,06,25,12,32,27.10
2017,06,25,12,33,27.10
2017,06,25,12,34,27.10
2017,06,25,12,35,27.10
2017,06,25,12,36,27.20
2017,06,25,12,37,27.20
2017,06,25,12,38,27.30
2017,06,25,12,39,27.40
2017,06,25,12,40,27.40
2017,06,25,12,41,27.40
2017,06,25,12,42,27.40
2017,06,25,12,43,27.40
2017,06,25,12,44,27.40
2017,06,25,12,45,27.40
2017,06,25,12,46,27.50
2017,06,25,12,47,27.50
2017,06,25,12,48,27.60
2017,06,25,12,49,27.60
2017,06,25,12,50,27.60
2017,06,25,12,51,27.70
2017,06,25,12,52,27.70
2017,06,25,12,53,27.70
2017,06,25,12,54,27.70
2017,06,25,12,55,27.70
2017,06,25,12,56,27.70
2017,06,25,12,57,27.80
2017,06,25,12,58,27.90
2017,06,25,12,59,28.00
2017,06,25,13,00,28.10
2017,06,25,13,01,28.20
2017,06,25,13,02,28.20
2017,06,25,13,03,28.20
2017,06,25,13,04,28.20
2017,06,25,13,05,28.30
2017,06,25,13,06,28.20
2017,06,25,13,07,28.20
2017,06,25,13,08,28.20
2017,06,25,13,09,28.20
2017,06,25,13,10,28.20
2017,06,25,13,11,28.20
2017,06,25,13,12,28.20
2017,06,25,13,13,28.10
2017,06,25,13,14,28.00
2017,06,25,13,15,28.00
2017,06,25,13,16,27.90
2017,06,25,13,17,27.90
2017,06,25,13,18,27.80
2017,06,25,13,19,27.70
2017,06,25,13,20,27.60
2017,06,25,13,21,27.50
2017,06,25,13,22,27.40
2017,06,25,13,23,27.40
2017,06,25,13,24,27.30
2017,06,25,13,25,27.30
2017,06,25,13,26,27.30
2017,06,25,13,27,27.40
2017,06,25,13,28,27.40
2017,06,25,13,29,27.40
2017,06,25,13,30,27.40
2017,06,25,13,31,27.40
2017,06,25,13,32,27.40
2017,06,25,13,33,27.50
2017,06,25,13,34,27.40
2017,06,25,13,35,27.50
2017,06,25,13,36,27.50
2017,06,25,13,37,27.50
2017,06,25,13,38,27.60
2017,06,25,13,39,27.70
2017,06,25,13,40,27.80
2017,06,25,13,41,27.90
2017,06,25,13,42,28.00
2017,06,25,13,43,28.10
2017,06,25,13,44,28.10
2017,06,25,13,45,28.20
2017,06,25,13,46,28.30
2017,06,25,13,47,28.30
2017,06,25,13,48,28.40
2017,06,25,13,49,28.30
2017,06,25,13,50,28.30
2017,06,25,13,51,28.30
2017,06,25,13,52,28.40
2017,06,25,13,53,28.40
2017,06,25,13,54,28.40
2017,06,25,13,55,28.50
2017,06,25,13,56,28.40
2017,06,25,13,57,28.40
2017,06,25,13,58,28.40
2017,06,25,13,59,28.40
2017,06,25,14,00,28.50
2017,06,25,14,01,28.60
2017,06,25,14,02,28.60
2017,06,25,14,03,28.60
2017,06,25,14,04,28.70
2017,06,25,14,05,28.70
2017,06,25,14,06,28.70
2017,06,25,14,07,28.80
2017,06,25,14,08,28.90
2017,06,25,14,09,28.90
2017,06,25,14,10,29.00
2017,06,25,14,11,29.00
2017,06,25,14,12,29.00
2017,06,25,14,13,29.00
2017,06,25,14,14,29.10
2017,06,25,14,15,29.20
2017,06,25,14,16,29.20
2017,06,25,14,17,29.10
2017,06,25,14,18,29.10
2017,06,25,14,19,29.10
2017,06,25,14,20,29.10
2017,06,25,14,21,29.10
2017,06,25,14,22,29.10
2017,06,25,14,23,29.20
2017,06,25,14,24,29.20
2017,06,25,14,25,29.20
2017,06,25,14,26,29.30
2017,06,25,14,27,29.40
2017,06,25,14,28,29.40
2017,06,25,14,29,29.60
2017,06,25,14,30,29.60
2017,06,25,14,31,29.70
2017,06,25,14,32,29.80
2017,06,25,14,33,29.90
2017,06,25,14,34,30.00
2017,06,25,14,35,30.10
2017,06,25,14,36,30.20
2017,06,25,14,37,30.40
2017,06,25,14,38,30.50
2017,06,25,14,39,30.50
2017,06,25,14,40,30.60
2017,06,25,14,41,30.50
2017,06,25,14,42,30.40
2017,06,25,14,43,30.30
2017,06,25,14,44,30.30
2017,06,25,14,45,30.20
2017,06,25,14,46,30.10
2017,06,25,14,47,30.10
2017,06,25,14,48,30.10
2017,06,25,14,49,30.10
2017,06,25,14,50,30.10
2017,06,25,14,51,30.10
2017,06,25,14,52,30.20
2017,06,25,14,53,30.20
2017,06,25,14,54,30.20
2017,06,25,14,55,30.30
2017,06,25,14,56,30.30
2017,06,25,14,57,30.40
2017,06,25,14,58,30.40
2017,06,25,14,59,30.40
2017,06,25,15,00,30.50
2017,06,25,15,01,30.60
2017,06,25,15,02,30.60
2017,06,25,15,03,30.60
2017,06,25,15,04,30.60
2017,06,25,15,05,30.70
2017,06,25,15,06,30.70
2017,06,25,15,07,30.80
2017,06,25,15,08,30.90
2017,06,25,15,09,30.90
2017,06,25,15,10,31.00
2017,06,25,15,11,31.00
2017,06,25,15,12,31.10
2017,06,25,15,13,31.10
2017,06,25,15,14,31.10
2017,06,25,15,15,31.10
2017,06,25,15,16,31.20
2017,06,25,15,17,31.20
2017,06,25,15,18,31.20
2017,06,25,15,19,31.20
2017,06,25,15,20,31.20
2017,06,25,15,21,31.20
2017,06,25,15,22,31.10
2017,06,25,15,23,31.00
2017,06,25,15,24,30.90
2017,06,25,15,25,30.80
2017,06,25,15,26,30.70
2017,06,25,15,27,30.70
2017,06,25,15,28,30.60
2017,06,25,15,29,30.60
2017,06,25,15,30,30.60
2017,06,25,15,31,30.60
2017,06,25,15,32,30.70
2017,06,25,15,33,30.70
2017,06,25,15,34,30.70
2017,06,25,15,35,30.70
2017,06,25,15,36,30.80
2017,06,25,15,37,30.80
2017,06,25,15,38,30.80
2017,06,25,15,39,30.80
2017,06,25,15,40,30.80
2017,06,25,15,41,30.60
2017,06,25,15,42,30.50
2017,06,25,15,43,30.30
2017,06,25,15,44,30.00
2017,06,25,15,45,29.70
2017,06,25,15,46,29.40
2017,06,25,15,47,29.10
2017,06,25,15,48,28.80
2017,06,25,15,49,28.50
2017,06,25,15,50,28.40
2017,06,25,15,51,28.20
2017,06,25,15,52,28.20
2017,06,25,15,53,28.20
2017,06,25,15,54,28.20
2017,06,25,15,55,28.20
2017,06,25,15,56,28.20
2017,06,25,15,57,28.30
2017,06,25,15,58,28.40
2017,06,25,15,59,28.40
2017,06,25,16,00,28.50
2017,06,25,16,01,28.60
2017,06,25,16,02,28.50
2017,06,25,16,03,28.40
2017,06,25,16,04,28.30
2017,06,25,16,05,28.20
2017,06,25,16,06,28.10
2017,06,25,16,07,28.10
2017,06,25,16,08,28.10
2017,06,25,16,09,28.10
2017,06,25,16,10,28.10
2017,06,25,16,11,28.20
2017,06,25,16,12,28.30
2017,06,25,16,13,28.40
2017,06,25,16,14,28.50
2017,06,25,16,15,28.60
2017,06,25,16,16,28.70
2017,06,25,16,17,28.80
2017,06,25,16,18,29.00
2017,06,25,16,19,29.10
2017,06,25,16,20,29.10
2017,06,25,16,21,29.20
2017,06,25,16,22,29.10
2017,06,25,16,23,29.10
2017,06,25,16,24,29.00
2017,06,25,16,25,29.00
2017,06,25,16,26,28.90
2017,06,25,16,27,28.90
2017,06,25,16,28,28.90
2017,06,25,16,29,28.90
2017,06,25,16,30,28.90
2017,06,25,16,31,28.90
2017,06,25,16,32,28.90
2017,06,25,16,33,28.90
2017,06,25,16,34,28.90
2017,06,25,16,35,28.90
2017,06,25,16,36,29.00
2017,06,25,16,37,29.00
2017,06,25,16,38,29.10
2017,06,25,16,39,29.10
2017,06,25,16,40,29.10
2017,06,25,16,41,29.10
2017,06,25,16,42,29.10
2017,06,25,16,43,29.10
2017,06,25,16,44,29.20
2017,06,25,16,45,29.20
2017,06,25,16,46,29.30
2017,06,25,16,47,29.30
2017,06,25,16,48,29.30
2017,06,25,16,49,29.30
2017,06,25,16,50,29.30
2017,06,25,16,51,29.40
2017,06,25,16,52,29.40
2017,06,25,16,53,29.50
2017,06,25,16,54,29.50
2017,06,25,16,55,29.60
2017,06,25,16,56,29.70
2017,06,25,16,57,29.70
2017,06,25,16,58,29.80
2017,06,25,16,59,29.80
2017,06,25,17,00,29.80
2017,06,25,17,01,29.90
2017,06,25,17,02,30.00
2017,06,25,17,03,30.00
2017,06,25,17,04,30.00
2017,06,25,17,05,29.90
2017,06,25,17,06,29.90
2017,06,25,17,07,29.80
2017,06,25,17,08,29.80
2017,06,25,17,09,29.70
2017,06,25,17,10,29.70
2017,06,25,17,11,29.70
2017,06,25,17,12,29.60
2017,06,25,17,13,29.60
2017,06,25,17,14,29.60
2017,06,25,17,15,29.50
2017,06,25,17,16,29.30
2017,06,25,17,17,29.20
2017,06,25,17,18,29.10
2017,06,25,17,19,29.00
2017,06,25,17,20,29.00
2017,06,25,17,21,29.00
2017,06,25,17,22,29.00
2017,06,25,17,23,29.00
2017,06,25,17,24,29.00
2017,06,25,17,25,29.00
2017,06,25,17,26,29.10
2017,06,25,17,27,29.10
2017,06,25,17,28,29.10
2017,06,25,17,29,29.10
2017,06,25,17,30,29.10
2017,06,25,17,31,29.10
2017,06,25,17,32,29.10
2017,06,25,17,33,29.10
2017,06,25,17,34,29.10
2017,06,25,17,35,29.10
2017,06,25,17,36,29.10
2017,06,25,17,37,29.00
2017,06,25,17,38,29.00
2017,06,25,17,39,29.00
2017,06,25,17,40,28.90
2017,06,25,17,41,28.90
2017,06,25,17,42,28.90
2017,06,25,17,43,28.90
2017,06,25,17,44,28.90
2017,06,25,17,45,28.90
2017,06,25,17,46,28.80
2017,06,25,17,47,28.90
2017,06,25,17,48,28.90
2017,06,25,17,49,28.90
2017,06,25,17,50,28.90
2017,06,25,17,51,28.90
2017,06,25,17,52,28.90
2017,06,25,17,53,28.90
2017,06,25,17,54,28.90
2017,06,25,17,55,28.90
2017,06,25,17,56,28.80
2017,06,25,17,57,28.80
2017,06,25,17,58,28.80
2017,06,25,17,59,28.80
2017,06,25,18,00,28.80
2017,06,25,18,01,28.80
2017,06,25,18,02,28.80
2017,06,25,18,03,28.80
2017,06,25,18,04,28.80
2017,06,25,18,05,28.80
2017,06,25,18,06,28.90
2017,06,25,18,07,28.90
2017,06,25,18,08,29.00
2017,06,25,18,09,29.00
2017,06,25,18,10,29.10
2017,06,25,18,11,29.10
2017,06,25,18,12,29.10
2017,06,25,18,13,29.10
2017,06,25,18,14,29.10
2017,06,25,18,15,29.10
2017,06,25,18,16,29.10
2017,06,25,18,17,29.10
2017,06,25,18,18,29.00
2017,06,25,18,19,29.00